Location: W�rzburg
(49.7529°N, 9.8822°E)
Time: 07:29:40
(UTC+01:00)

ISS - Pass Details

Date: 12 November 2017
Orbit: 402 x 407 km, 51.6° (Epoch: 19 November)

Event Time Altitude Azimuth Distance (km) Brightness Sun altitude
Exits shadow 05:52:43 37° 282° (WNW) 644 -3.4 -15.3°
Maximum altitude 05:53:52 81° 200° (SSW) 412 -3.9 -15.2°
Drops below altitude 10° 05:57:07 10° 113° (ESE) 1,453 0.3 -14.6°
Sets 05:59:12 0° 112° (ESE) 2,311 1.7 -14.3°
